Weather in Oktyabr'skiy

Russia / Ulyanovsk Oblast     54°20′30″N   48°42′27″E
temp.,
°C
wind,
m/s
gust,
m/s
humid.,
%
clouds,
%
prec.,
mm/h
press.,
hPa
HPBL,
m
22 october, fri
fri2201:00+10wsw61385100 0.0 1003440
04:00+10sw61382100 0.0 1003448
07:00+9sw71580100 0.0 1002455
10:00+10sw81673100 0.0 1002756
13:00+12sw91561100 0.0 1001778
16:00+12wsw81464100 0.0 1002932
19:00+12sw81569100 0.0 1004812
22:00+11wsw815789 0.0 1006733
23 october, sat
sat2301:00+10wsw612790 0.0 1007409
04:00+8sw511830 0.0 1008325
07:00+8sw612865 0.0 1009348
10:00+9sw712720 0.0 1010840
13:00+12wsw714505 0.0 10111645
16:00+13sw6134896 0.0 10101634
19:00+10wsw51058100 0.0 1011219
22:00+9wsw4971100 0.1 1011295
24 october, sun
sun2401:00+8sse4685100 0.6 1010211
04:00+8w367892 1.0 1009356
07:00+6w510805 0.0 1009324
10:00+6w69705 0.0 1011786
13:00+8w795435 0.0 10121424
16:00+7w5852100 0.0 10121524
19:00+6w696211 0.1 1014559
22:00+6wsw4660100 0.1 1014365
25 october, mon
mon2501:00+4w346585 0.0 101566
04:00+4w368799 0.0 1015192
07:00+3wnw358795 0.0 1016112
10:00+5wnw577284 0.0 1018661
13:00+5nw7864100 0.1 10191425
16:00+3nnw81062100 0.2 10221493
19:00+2nnw712565 0.0 1025616
22:00+1nnw610645 0.0 1027442
26 october, tue
tue2601:00−1nnw58725 0.0 1029260
04:00−1nw47765 0.0 1030153
07:00−2wnw46740 0.0 1030118
10:00+1w5757100 0.0 1031485
13:00+4w694379 0.0 1029829
16:00+5wsw71140100 0.0 1027869
19:00+3wsw7134813 0.0 1027514
22:00+2w71351100 0.0 1026505